sat.trackr.live / text

‹ back to catalog

STARLINK-34843

NORAD 65201 · 2025-176D

PAYLOAD ACTIVE UNKNOWN

§ Identity

Operator
Country
US
Launch date
2025-08-14
Launch site
AFETR
Launch vehicle
Mass (kg)
RCS (m²)

Purposes: comms

External: N2YO · Heavens-Above · Gunter

§ Orbital elements

Epoch: 2026-09-20T20:50:23.053632Z

Period
93.85 min
Inclination
53.1590°
Eccentricity
0.0001078
Mean motion
15.34396291 rev/d
Perigee alt
462.0 km
Apogee alt
463.5 km
Semi-major
6,840.9 km
B*
4.3692e-4
RAAN
321.8563°
Arg perigee
87.6125°
Mean anomaly
272.5001°
Rev number
6,306

§ Raw data

STARLINK-348431 65201U 25176D   26263.86832238  .00014413  00000+0  43692-3 0  99932 65201  53.1590 321.8563 0001078  87.6125 272.5001 15.34396291 63067

JSON: /api/v1/satellites/65201 · /tle

For live sub-satellite position, see the globe view (requires WebGL).

§ Visibility from observer

Set your observer location to see the next 7 days of passes ≥ 10°. The values pass through the URL so the page stays shareable.

No JS? Fill the form by hand. The geolocation button needs JavaScript.